When you browse on this site, cookies collect data to enhance your experience and personalize the content and advertising you see.
Visit our Privacy Policy to learn more. By continuing to use the site, you agree to this use of cookies and data.
  • In Hungary
  • List of Countries
  • For 7 days
  • Water Temperature
  • Satellite Maps
  • Weather Map
  • News
  • Weather Widgets
  • user-avatar
    Login

    Hourly Weather Algiers

    Today, 17 January, Thursday

    Time Temperature Precipitation Wind Pressure Humidity
    00:00 +12°C° 0 mm 2 mps 750 mmHg 57%
    01:00 +12°C° 0 mm 2 mps 750 mmHg 57%
    02:00 +10°C° 0 mm 3 mps 750 mmHg 57%
    03:00 +10°C° 0 mm 3 mps 749 mmHg 57%
    04:00 +10°C° 0 mm 3 mps 749 mmHg 57%
    05:00 +10°C° 0 mm 3 mps 749 mmHg 57%
    06:00 +10°C° 0 mm 3 mps 749 mmHg 57%
    07:00 +10°C° 0 mm 3 mps 749 mmHg 56%
    08:00 +11°C° 0 mm 3 mps 749 mmHg 54%
    09:00 +12°C° 0 mm 3 mps 749 mmHg 53%
    10:00 +13°C° 0 mm 3 mps 749 mmHg 49%
    11:00 +14°C° 0 mm 3 mps 749 mmHg 44%
    12:00 +17°C° 0 mm 3 mps 749 mmHg 40%
    13:00 +17°C° 0 mm 3 mps 749 mmHg 41%
    14:00 +17°C° 0 mm 3 mps 749 mmHg 43%
    15:00 +17°C° 0 mm 3 mps 748 mmHg 44%
    16:00 +16°C° 0.1 mm 3 mps 748 mmHg 50%
    17:00 +13°C° 0.1 mm 3 mps 748 mmHg 57%
    18:00 +12°C° 0.1 mm 3 mps 748 mmHg 63%
    19:00 +12°C° 0.1 mm 3 mps 749 mmHg 65%
    20:00 +12°C° 0.1 mm 3 mps 749 mmHg 67%
    21:00 +12°C° 0.1 mm 3 mps 749 mmHg 69%
    22:00 +11°C° 0.1 mm 3 mps 749 mmHg 69%
    23:00 +11°C° 0.1 mm 3 mps 749 mmHg 69%

    Tomorrow, 18 January, Friday

    Time Temperature Precipitation Wind Pressure Humidity
    00:00 +11°C° 0.1 mm 3 mps 749 mmHg 69%
    01:00 +11°C° 0.2 mm 3 mps 749 mmHg 68%
    02:00 +11°C° 0.2 mm 3 mps 749 mmHg 68%
    03:00 +11°C° 0.2 mm 3 mps 749 mmHg 68%
    04:00 +10°C° 0.2 mm 3 mps 749 mmHg 69%
    05:00 +10°C° 0.2 mm 3 mps 749 mmHg 70%
    06:00 +10°C° 0.2 mm 3 mps 749 mmHg 72%
    07:00 +11°C° 0.2 mm 3 mps 750 mmHg 71%
    08:00 +11°C° 0.2 mm 3 mps 750 mmHg 70%
    09:00 +12°C° 0.2 mm 3 mps 750 mmHg 70%
    10:00 +12°C° 0.1 mm 4 mps 750 mmHg 66%
    11:00 +13°C° 0.1 mm 4 mps 750 mmHg 63%
    12:00 +14°C° 0.1 mm 4 mps 750 mmHg 60%
    13:00 +14°C° 0.2 mm 4 mps 750 mmHg 60%
    14:00 +14°C° 0.2 mm 4 mps 749 mmHg 61%
    15:00 +14°C° 0.2 mm 4 mps 749 mmHg 61%
    16:00 +13°C° 0.3 mm 3 mps 749 mmHg 64%
    17:00 +12°C° 0.3 mm 3 mps 750 mmHg 67%
    18:00 +13°C° 0.3 mm 2 mps 750 mmHg 71%
    19:00 +12°C° 0.3 mm 2 mps 750 mmHg 72%
    20:00 +12°C° 0.3 mm 2 mps 750 mmHg 74%
    21:00 +12°C° 0.3 mm 2 mps 750 mmHg 75%
    22:00 +10°C° 0.2 mm 2 mps 750 mmHg 75%
    23:00 +10°C° 0.2 mm 2 mps 750 mmHg 75%

    Day after tomorrow, 19 January, Saturday

    Time Temperature Precipitation Wind Pressure Humidity
    00:00 +10°C° 0.2 mm 2 mps 750 mmHg 75%
    01:00 +10°C° 0.2 mm 3 mps 750 mmHg 74%
    02:00 +10°C° 0.2 mm 3 mps 750 mmHg 73%
    03:00 +10°C° 0.2 mm 4 mps 750 mmHg 72%
    04:00 +10°C° 0.1 mm 4 mps 750 mmHg 71%
    05:00 +10°C° 0.1 mm 4 mps 750 mmHg 71%
    06:00 +10°C° 0.1 mm 4 mps 750 mmHg 70%
    07:00 +10°C° 0 mm 4 mps 750 mmHg 67%
    08:00 +10°C° 0 mm 5 mps 751 mmHg 65%
    09:00 +10°C° 0 mm 5 mps 751 mmHg 62%
    10:00 +12°C° 0 mm 5 mps 751 mmHg 57%
    11:00 +13°C° 0 mm 5 mps 750 mmHg 53%
    12:00 +14°C° 0 mm 5 mps 750 mmHg 48%
    13:00 +14°C° 0 mm 5 mps 750 mmHg 48%
    14:00 +14°C° 0 mm 5 mps 749 mmHg 49%
    15:00 +14°C° 0 mm 4 mps 749 mmHg 49%
    16:00 +14°C° 0 mm 4 mps 749 mmHg 53%
    17:00 +13°C° 0 mm 4 mps 749 mmHg 57%
    18:00 +12°C° 0 mm 4 mps 749 mmHg 61%
    19:00 +12°C° 0 mm 4 mps 749 mmHg 63%
    20:00 +12°C° 0 mm 4 mps 749 mmHg 65%
    21:00 +10°C° 0 mm 5 mps 749 mmHg 67%
    22:00 +10°C° 0 mm 5 mps 749 mmHg 68%
    23:00 +10°C° 0 mm 5 mps 749 mmHg 69%

    20 January, Sunday

    Time Temperature Precipitation Wind Pressure Humidity
    00:00 +11°C° 0 mm 4 mps 748 mmHg 71%
    01:00 +11°C° 0.1 mm 4 mps 748 mmHg 71%
    02:00 +11°C° 0.1 mm 4 mps 748 mmHg 72%
    03:00 +11°C° 0.1 mm 4 mps 747 mmHg 73%
    04:00 +10°C° 0.3 mm 5 mps 747 mmHg 73%
    05:00 +10°C° 0.3 mm 5 mps 746 mmHg 73%
    06:00 +12°C° 0.3 mm 5 mps 746 mmHg 73%
    07:00 +12°C° 0.2 mm 5 mps 746 mmHg 74%
    08:00 +12°C° 0.2 mm 5 mps 746 mmHg 75%
    09:00 +12°C° 0.2 mm 5 mps 746 mmHg 75%
    10:00 +13°C° 0 mm 5 mps 746 mmHg 71%
    11:00 +14°C° 0 mm 5 mps 746 mmHg 67%
    12:00 +15°C° 0 mm 5 mps 746 mmHg 63%
    13:00 +15°C° 0.3 mm 5 mps 746 mmHg 62%
    14:00 +15°C° 0.3 mm 5 mps 745 mmHg 61%
    15:00 +16°C° 0.3 mm 5 mps 745 mmHg 60%
    16:00 +15°C° 1 mm 5 mps 745 mmHg 66%
    17:00 +14°C° 1 mm 5 mps 746 mmHg 72%
    18:00 +13°C° 1 mm 4 mps 746 mmHg 78%
    19:00 +13°C° 0.6 mm 4 mps 746 mmHg 79%
    20:00 +12°C° 0.6 mm 4 mps 747 mmHg 81%
    21:00 +12°C° 0.6 mm 5 mps 747 mmHg 82%
    22:00 +12°C° 1.1 mm 5 mps 748 mmHg 84%
    23:00 +11°C° 1.1 mm 6 mps 748 mmHg 86%

    21 January, Monday

    Time Temperature Precipitation Wind Pressure Humidity
    00:00 +11°C° 1.1 mm 7 mps 748 mmHg 88%
    01:00 +10°C° 1.3 mm 7 mps 748 mmHg 87%
    02:00 +10°C° 1.3 mm 7 mps 748 mmHg 86%
    03:00 +10°C° 1.3 mm 7 mps 749 mmHg 85%
    04:00 +10°C° 0.5 mm 7 mps 749 mmHg 82%
    05:00 +10°C° 0.5 mm 6 mps 750 mmHg 80%
    06:00 +10°C° 0.5 mm 6 mps 750 mmHg 77%
    07:00 +10°C° 0.1 mm 6 mps 751 mmHg 74%
    08:00 +11°C° 0.1 mm 6 mps 751 mmHg 72%
    09:00 +12°C° 0.1 mm 5 mps 752 mmHg 69%
    10:00 +12°C° 0.1 mm 5 mps 752 mmHg 66%
    11:00 +13°C° 0.1 mm 4 mps 752 mmHg 63%
    12:00 +13°C° 0.1 mm 4 mps 752 mmHg 60%
    13:00 +13°C° 0.3 mm 4 mps 752 mmHg 62%
    14:00 +12°C° 0.3 mm 4 mps 752 mmHg 64%
    15:00 +12°C° 0.3 mm 4 mps 752 mmHg 67%
    16:00 +11°C° 0.4 mm 3 mps 752 mmHg 69%
    17:00 +12°C° 0.4 mm 2 mps 752 mmHg 71%
    18:00 +11°C° 0.4 mm 1 mps 752 mmHg 74%
    19:00 +11°C° 0.2 mm 1 mps 753 mmHg 75%
    20:00 +11°C° 0.2 mm 1 mps 753 mmHg 77%
    21:00 +10°C° 0.2 mm 2 mps 753 mmHg 78%
    22:00 +9°C° 0.1 mm 2 mps 753 mmHg 78%
    23:00 +9°C° 0.1 mm 3 mps 752 mmHg 78%

    22 January, Tuesday

    Time Temperature Precipitation Wind Pressure Humidity
    00:00 +9°C° 0.1 mm 3 mps 752 mmHg 77%
    01:00 +8°C° 0 mm 4 mps 751 mmHg 76%
    02:00 +8°C° 0 mm 4 mps 751 mmHg 75%
    03:00 +8°C° 0 mm 4 mps 750 mmHg 73%
    04:00 +8°C° 0.1 mm 5 mps 750 mmHg 73%
    05:00 +8°C° 0.1 mm 5 mps 749 mmHg 73%
    06:00 +7°C° 0.1 mm 5 mps 749 mmHg 72%
    07:00 +8°C° 0 mm 6 mps 749 mmHg 70%
    08:00 +9°C° 0 mm 6 mps 749 mmHg 68%
    09:00 +10°C° 0 mm 7 mps 748 mmHg 65%
    10:00 +10°C° 0 mm 7 mps 747 mmHg 62%
    11:00 +11°C° 0 mm 7 mps 746 mmHg 58%
    12:00 +12°C° 0 mm 7 mps 746 mmHg 54%
    13:00 +12°C° 0.1 mm 8 mps 744 mmHg 56%
    14:00 +12°C° 0.1 mm 9 mps 743 mmHg 58%
    15:00 +12°C° 0.1 mm 10 mps 742 mmHg 59%
    16:00 +11°C° 0.8 mm 9 mps 742 mmHg 65%
    17:00 +10°C° 0.8 mm 9 mps 741 mmHg 70%
    18:00 +10°C° 0.8 mm 9 mps 740 mmHg 75%
    19:00 +9°C° 2.3 mm 8 mps 739 mmHg 79%
    20:00 +9°C° 2.3 mm 7 mps 739 mmHg 83%
    21:00 +8°C° 2.3 mm 7 mps 738 mmHg 87%
    22:00 +8°C° 2.2 mm 7 mps 738 mmHg 80%
    23:00 +7°C° 2.2 mm 8 mps 738 mmHg 72%
    Show more